ANTELSAT

Last updated on Fri Feb 16 2018 09:56:15 GMT+0000 (Coordinated Universal Time)

1 40034U 14033AA 18046.61567916 .00000218 00000-0 40185-4 0 9995 2 40034 97.8290 287.5674 0057794 228.8372 130.7843 14.73861818196246
UTC large
Height (km)
Speed (km/s)
/
Latitude / Longitude
Inclination (degrees)
Orbital Period (minutes)
Azimuth
Elevation
Range (km)
Doppler Factor

Next 0 passes for location: London (51.5072 / 0.1276)

Sorry there are no passes over London.
ANTELSAT